UOSAT 2 (UO-11)

Last updated on Mon Sep 15 2025 00:03:09 GMT+0000 (Coordinated Universal Time)

1 14781U 84021B 25257.13528032 .00001285 00000+0 14004-3 0 9998 2 14781 97.7656 221.6598 0008475 28.4714 331.6965 14.89664016216014
UTC large
Height (km)
Speed (km/s)
/
Latitude / Longitude
Inclination (degrees)
Orbital Period (minutes)
Azimuth
Elevation
Range (km)
Doppler Factor

Next 0 passes for location: London (51.5072 / 0.1276)

Sorry there are no passes over London.